[Iaude] MPEC M36: 2020 LV1 [a=2.43,e=0.67,i=25.7,H=22.0,PHA]

mpec at marsden.cfa.harvard.edu mpec at marsden.cfa.harvard.edu
Fri Jun 19 14:20:56 EDT 2020


M.P.E.C. 2020-M36                                 Issued 2020 June 19, 18:19 UT

     The Minor Planet Electronic Circulars contain information on unusual
         minor planets and routine data on comets.  They are published
    on behalf of Division F of the International Astronomical Union by the
          Minor Planet Center, Smithsonian Astrophysical Observatory,
                          Cambridge, MA 02138, U.S.A.

             Prepared using the Tamkin Foundation Computer Network

                              MPC at CFA.HARVARD.EDU
            URL https://www.minorplanetcenter.net/    ISSN 1523-6714

                                    2020 LV1                                    


Observations:
     K20L01V* C2020 06 15.56759722 10 12.69 -27 46 08.7          18.81oVEM036T08
     K20L01V  C2020 06 15.57082322 10 10.69 -27 47 15.6          18.84oVEM036T08
     K20L01V  C2020 06 15.57682822 10 06.68 -27 49 21.6          18.74oVEM036T08
     K20L01V  C2020 06 15.59536922 09 54.56 -27 55 47.7          18.78oVEM036T08
     K20L01V  C2020 06 17.58444721 50 25.99 -37 41 53.7          18.81oVEM036T08
     K20L01V  C2020 06 17.58537021 50 25.39 -37 42 07.5          18.73oVEM036T08
     K20L01V  C2020 06 17.58582921 50 25.17 -37 42 13.7          19.03oVEM036T08
     K20L01V  C2020 06 17.58629021 50 24.87 -37 42 21.1          18.16oVEM036T08
     K20L01V  C2020 06 17.58675121 50 24.54 -37 42 28.2          18.88oVEM036T08
     K20L01V  C2020 06 19.19172 21 35 38.73 -43 31 29.5          18.3 GVEM036J04
     K20L01V  C2020 06 19.19219 21 35 38.45 -43 31 34.5          18.8 GVEM036J04
     K20L01V  C2020 06 19.19268 21 35 38.18 -43 31 40.4          18.7 GVEM036J04
     K20L01V KC2020 06 19.64440721 31 38.77 -44 52 44.6          19.1 GVEM036474
     K20L01V KC2020 06 19.64626421 31 37.73 -44 53 04.1          19.2 GVEM036474
     K20L01V KC2020 06 19.64750321 31 37.04 -44 53 17.2          19.2 GVEM036474
     K20L01V KC2020 06 19.64874521 31 36.36 -44 53 30.3          19.0 GVEM036474

Observer details:
474 Mount John Observatory, Lake Tekapo.  Observers A. C. Gilmore, P. M.
    Kilmartin.  Measurer P. M. Kilmartin.  1.0-m f/7.7 reflector + CCD.
J04 ESA Optical Ground Station, Tenerife.  Observers P. Ruiz, J. Kuusela.
    Measurers A. Knofel, D. Koschny, M. Busch, M. Micheli, E. Schwab.  1.0-m
    f/4.4 reflector + CCD.
T08 ATLAS-MLO, Mauna Loa.  Observers L. Denneau, J. Tonry, A. Heinze, H.
    Weiland, H. Flewelling.  Measurers L. Denneau, J. Tonry, A. Heinze, H.
    Weiland, H. Flewelling, B. Stalder, A. Fitzsimmons, J. Robinson, N.
    Erasmus.  0.5-m reflector + CCD.

Orbital elements:
2020 LV1                                            PHA, Earth MOID = 0.0136 AU
Epoch 2020 May 31.0 TT = JDT 2459000.5                  Pan
M   7.88583              (2000.0)            P               Q
n   0.25972800     Peri.  116.23537     -0.83746171     +0.33428160
a   2.4328959      Node    85.96521     -0.50703258     -0.77043534
e   0.6695399      Incl.   25.68412     +0.20390155     -0.54284915
P   3.79           H   22.0           G   0.15           U   8
Residuals in seconds of arc
200615 T08  0.2-  0.4+    200617 T08  0.4+  0.5+    200619 474  0.0   0.1-
200615 T08  1.1+  0.8+    200617 T08  0.2+  0.0     200619 474  0.1-  0.0
200615 T08  0.2-  0.1-    200617 T08  0.4-  0.2-    200619 474  0.1-  0.0
200615 T08  0.7-  1.1-    200619 J04  0.1+  0.1-    200619 474  0.1+  0.0
200617 T08  0.1+  0.1-    200619 J04  0.0   0.3+
200617 T08  0.3-  0.2-    200619 J04  0.1+  0.0

Ephemeris:
2020 LV1                 a,e,i = 2.43, 0.67, 26                  q = 0.8040
Date    TT    R. A. (2000) Decl.     Delta      r    Elong.  Phase     V
2020 05 20    03 07 41.2 +67 20 10   0.2612  0.8586    47.8   119.2    23.5
...
2020 06 04    00 26 12.0 +50 23 31   0.1080  0.9608    57.5   117.0    21.7
...
2020 06 12    22 48 22.3 -01 44 56   0.07200 1.0284    98.4    77.7    19.1
...
2020 06 18    21 46 31.4 -39 20 14   0.1048  1.0829   127.4    48.2    19.1
2020 06 19    21 37 21.9 -42 53 16   0.1133  1.0922   129.8    45.6    19.2
2020 06 20    21 28 31.9 -45 53 06   0.1224  1.1016   131.8    43.5    19.3
...
2020 06 26    20 42 12.5 -56 28 21   0.1827  1.1588   138.0    36.0    20.1
...
2020 07 04    19 56 51.2 -61 28 12   0.2718  1.2370   139.9    32.0    21.0
...
2020 07 19    19 10 39.5 -62 35 21   0.4540  1.3858   137.6    29.6    22.3

M. P. C. Staff               (C) Copyright 2020 MPC           M.P.E.C. 2020-M36




More information about the Iaude mailing list